Glencoe, MN

2:32 PM CDT on September 20, 2017 (GMT -0500)
Glencoe Municipal

Weather History for KGYL - September, 2013

Change the Weather History Date:

Friday, September 27, 2013

  Actual Average (KHCD) Record (KHCD)
Temperature  
Mean Temperature 76 °F -  
Max Temperature 86 °F 69 °F 90 °F (1983)
Min Temperature 66 °F 43 °F 31 °F (1967)
Cooling Degree Days 11    
Growing Degree Days 26 (Base 50)    
Moisture  
Dew Point 58 °F    
Average Humidity 59    
Maximum Humidity 81    
Minimum Humidity 34    
Precipitation  
Precipitation 0.01 in - - ()
Sea Level Pressure  
Sea Level Pressure 29.83 in    
Wind  
Wind Speed 10 mph (SE)    
Max Wind Speed 18 mph    
Max Gust Speed 31 mph    
Visibility 10 miles    
Events Rain    
Averages and records for this station are not official NWS values.
T = Trace of Precipitation, MM = Missing Value Source: NWS Daily Summary

Daily Weather History Graph

Daily Weather History Graph

Search for Another Location

Airport or City:

Trip Planner

Search our weather history database for the weather conditions in past years. The results will help you decide how hot, cold, wet, or windy it might be!

Date:

Astronomy

Sep. 27, 2013 Rise Set
Actual Time 7:09 AM CDT 7:03 PM CDT
Civil Twilight 6:40 AM CDT 7:32 PM CDT
Nautical Twilight 6:06 AM CDT 8:06 PM CDT
Astronomical Twilight 5:31 AM CDT 8:41 PM CDT
Moon No Moon Rise 2:55 PM CDT (9/27)
Length of Visible Light 12h 52m
Length of Day
11h 54m
Last Quarter, 45% of the Moon is Illuminated
Sep 27
Last Quarter
Oct 4
New
Oct 11
First Quarter
Oct 18
Full
Oct 26
Last Quarter

Hourly Weather History & Observations

Time (CDT) Temp. Heat Index Dew Point Humidity Pressure Visibility Wind Dir Wind Speed Gust Speed Precip Events Conditions
12:13 AM 70.5 °F - 57.6 °F 63% 29.88 in 10.0 mi SE 9.2 mph - N/A   Clear
12:32 AM 70.2 °F - 57.7 °F 65% 29.88 in 10.0 mi SE 10.4 mph - N/A   Clear
12:53 AM 70.0 °F - 57.9 °F 65% 29.88 in 10.0 mi SE 9.2 mph - N/A   Clear
1:13 AM 69.8 °F - 58.1 °F 66% 29.88 in 10.0 mi SE 8.1 mph - N/A   Clear
1:32 AM 69.3 °F - 57.9 °F 67% 29.88 in 10.0 mi SE 9.2 mph - N/A   Clear
1:53 AM 68.9 °F - 58.1 °F 68% 29.88 in 10.0 mi SE 9.2 mph - N/A   Clear
2:13 AM 68.9 °F - 58.1 °F 68% 29.88 in 10.0 mi SE 8.1 mph - N/A   Clear
2:33 AM 68.5 °F - 58.1 °F 69% 29.88 in 10.0 mi SE 9.2 mph - N/A   Clear
2:52 AM 68.9 °F - 58.3 °F 69% 29.87 in 10.0 mi SE 10.4 mph - N/A   Clear
3:13 AM 69.1 °F - 58.3 °F 68% 29.87 in 10.0 mi SE 11.5 mph 16.1 mph N/A   Clear
3:33 AM 69.8 °F - 58.5 °F 67% 29.86 in 10.0 mi SE 11.5 mph 17.3 mph N/A   Clear
3:52 AM 70.0 °F - 58.5 °F 67% 29.86 in 10.0 mi SE 12.7 mph - N/A   Clear
4:12 AM 70.2 °F - 58.5 °F 66% 29.85 in 10.0 mi SE 11.5 mph 19.6 mph N/A   Clear
4:33 AM 70.3 °F - 59.0 °F 67% 29.85 in 10.0 mi SE 12.7 mph 21.9 mph N/A   Clear
4:52 AM 70.7 °F - 59.0 °F 66% 29.85 in 10.0 mi SE 12.7 mph 20.7 mph N/A   Clear
5:12 AM 70.7 °F - 59.0 °F 66% 29.85 in 10.0 mi SSE 11.5 mph 20.7 mph N/A   Scattered Clouds
5:32 AM 70.7 °F - 59.0 °F 66% 29.85 in 10.0 mi SSE 12.7 mph 19.6 mph N/A   Clear
5:52 AM 70.7 °F - 59.0 °F 66% 29.86 in 10.0 mi SSE 11.5 mph 19.6 mph N/A   Clear
6:13 AM 70.3 °F - 59.0 °F 67% 29.86 in 10.0 mi SSE 10.4 mph 19.6 mph N/A   Clear
6:33 AM 69.8 °F - 59.0 °F 68% 29.86 in 10.0 mi SE 11.5 mph - N/A   Scattered Clouds
6:52 AM 68.9 °F - 59.0 °F 71% 29.87 in 10.0 mi SE 8.1 mph - N/A   Mostly Cloudy
7:13 AM 69.1 °F - 59.0 °F 70% 29.87 in 10.0 mi SE 8.1 mph - N/A   Overcast
7:33 AM 69.1 °F - 59.0 °F 70% 29.88 in 10.0 mi SSE 6.9 mph - N/A   Mostly Cloudy
7:52 AM 68.9 °F - 59.2 °F 71% 29.89 in 10.0 mi SSE 6.9 mph - N/A   Light Drizzle
8:12 AM 68.9 °F - 59.7 °F 72% 29.88 in 10.0 mi SE 9.2 mph - N/A Rain Light Rain
8:33 AM 67.6 °F - 59.9 °F 76% 29.89 in 10.0 mi SE 5.8 mph - N/A   Mostly Cloudy
8:53 AM 67.1 °F - 59.9 °F 78% 29.89 in 10.0 mi ESE 9.2 mph - N/A   Scattered Clouds
9:12 AM 67.1 °F - 59.5 °F 77% 29.89 in 10.0 mi SE 8.1 mph - N/A   Scattered Clouds
9:32 AM 68.0 °F - 59.4 °F 74% 29.89 in 10.0 mi SE 6.9 mph - N/A   Mostly Cloudy
9:53 AM 66.9 °F - 60.4 °F 80% 29.88 in 7.0 mi SE 8.1 mph - N/A Rain Light Rain
10:12 AM 67.3 °F - 60.8 °F 80% 29.86 in 7.0 mi SE 6.9 mph - 0.01 in Rain Rain
10:33 AM 67.1 °F - 61.2 °F 81% 29.86 in 10.0 mi ESE 6.9 mph - 0.01 in   Mostly Cloudy
10:53 AM 67.5 °F - 61.0 °F 80% 29.88 in 10.0 mi SE 5.8 mph - 0.01 in   Overcast
11:12 AM 68.2 °F - 61.2 °F 78% 29.87 in 10.0 mi SE 8.1 mph - N/A Rain Light Rain
11:33 AM 68.7 °F - 61.3 °F 77% 29.85 in 10.0 mi SE 12.7 mph 18.4 mph N/A   Overcast
11:52 AM 70.5 °F - 61.5 °F 73% 29.84 in 10.0 mi SE 10.4 mph 16.1 mph N/A   Overcast
12:13 PM 71.6 °F - 61.0 °F 69% 29.83 in 10.0 mi SE 10.4 mph 16.1 mph N/A   Mostly Cloudy
12:33 PM 71.4 °F - 61.7 °F 71% 29.82 in 10.0 mi ESE 10.4 mph - N/A   Mostly Cloudy
12:53 PM 72.9 °F - 61.9 °F 68% 29.83 in 10.0 mi ESE 6.9 mph - N/A   Mostly Cloudy
1:13 PM 76.5 °F - 62.4 °F 62% 29.82 in 10.0 mi SE 5.8 mph - N/A   Scattered Clouds
1:33 PM 79.3 °F - 60.8 °F 53% 29.80 in 10.0 mi SSE 11.5 mph 17.3 mph N/A   Clear
1:52 PM 81.9 °F 82.1 °F 59.2 °F 46% 29.79 in 10.0 mi SSE 16.1 mph 23.0 mph N/A   Clear
2:13 PM 82.9 °F 82.7 °F 58.5 °F 43% 29.78 in 10.0 mi SSE 16.1 mph 21.9 mph N/A   Clear
2:32 PM 84.0 °F 83.5 °F 57.9 °F 41% 29.78 in 10.0 mi SSE 16.1 mph 24.2 mph N/A   Clear
2:52 PM 85.8 °F 84.7 °F 56.5 °F 37% 29.78 in 10.0 mi SSE 18.4 mph 31.1 mph N/A   Clear
3:13 PM 86.0 °F 84.7 °F 56.5 °F 36% 29.77 in 10.0 mi SSE 16.1 mph 21.9 mph N/A   Clear
3:33 PM 85.1 °F 84.1 °F 57.0 °F 38% 29.77 in 10.0 mi SSE 11.5 mph 28.8 mph N/A   Clear
3:53 PM 85.8 °F 84.3 °F 55.6 °F 35% 29.77 in 10.0 mi SSE 13.8 mph 26.5 mph N/A   Clear
4:13 PM 85.8 °F 84.3 °F 55.4 °F 35% 29.78 in 10.0 mi SSE 12.7 mph 25.3 mph N/A   Clear
4:33 PM 85.6 °F 84.0 °F 54.0 °F 34% 29.78 in 10.0 mi SSE 12.7 mph 23.0 mph N/A   Clear
4:52 PM 86.0 °F 84.5 °F 55.2 °F 35% 29.78 in 10.0 mi SSE 11.5 mph 19.6 mph N/A   Clear
5:12 PM 84.7 °F 83.6 °F 55.4 °F 37% 29.78 in 10.0 mi SSE 11.5 mph 20.7 mph N/A   Clear
5:33 PM 84.2 °F 83.0 °F 55.2 °F 37% 29.79 in 10.0 mi SSE 10.4 mph 19.6 mph N/A   Clear
5:53 PM 83.5 °F 82.5 °F 55.6 °F 38% 29.80 in 10.0 mi SSE 9.2 mph 18.4 mph N/A   Clear
6:12 PM 83.1 °F 82.3 °F 55.8 °F 39% 29.80 in 10.0 mi SSE 9.2 mph 16.1 mph N/A   Clear
6:33 PM 82.4 °F 81.8 °F 55.9 °F 40% 29.80 in 10.0 mi SSE 10.4 mph - N/A   Clear
6:52 PM 81.9 °F 81.4 °F 56.3 °F 41% 29.80 in 10.0 mi SSE 6.9 mph - N/A   Scattered Clouds
7:13 PM 80.6 °F 80.8 °F 57.2 °F 45% 29.80 in 10.0 mi SSE 8.1 mph 16.1 mph N/A Rain Light Rain
7:32 PM 79.9 °F - 57.2 °F 46% 29.80 in 10.0 mi SE 9.2 mph 16.1 mph N/A   Clear
7:53 PM 79.0 °F - 56.3 °F 46% 29.80 in 10.0 mi SE 9.2 mph - N/A   Clear
8:13 PM 79.0 °F - 56.1 °F 45% 29.80 in 10.0 mi SE 10.4 mph - N/A   Clear
8:33 PM 78.4 °F - 56.8 °F 47% 29.80 in 10.0 mi SE 8.1 mph - N/A   Clear
8:53 PM 78.1 °F - 57.6 °F 49% 29.80 in 10.0 mi SE 10.4 mph 16.1 mph N/A   Clear
9:12 PM 77.9 °F - 57.7 °F 50% 29.80 in 10.0 mi SE 10.4 mph 17.3 mph N/A   Clear
9:32 PM 77.4 °F - 57.6 °F 50% 29.81 in 10.0 mi SE 11.5 mph 23.0 mph N/A   Clear
9:53 PM 76.8 °F - 57.7 °F 52% 29.81 in 10.0 mi SSE 12.7 mph - N/A   Clear
10:12 PM 75.9 °F - 57.9 °F 54% 29.80 in 10.0 mi SE 11.5 mph 19.6 mph N/A   Clear
10:33 PM 75.4 °F - 58.1 °F 55% 29.80 in 10.0 mi SSE 10.4 mph 19.6 mph N/A   Clear
10:53 PM 75.2 °F - 58.1 °F 55% 29.80 in 10.0 mi SSE 11.5 mph 20.7 mph N/A   Clear
11:13 PM 74.7 °F - 58.3 °F 57% 29.79 in 10.0 mi SSE 11.5 mph 23.0 mph N/A   Clear
11:33 PM 74.5 °F - 58.3 °F 57% 29.79 in 10.0 mi SSE 11.5 mph 20.7 mph N/A   Clear
11:53 PM 74.3 °F - 58.3 °F 57% 29.78 in 10.0 mi SSE 12.7 mph 20.7 mph N/A   Clear